Home > Time Zones > World Clock > Weather > Latvia > Riga > Past weeks

Flag for Latvia Weather past 2 weeks in Riga, Latvia

Now
50 °F

Passing clouds.


Feels Like: 46 °F
Forecast: 40 / 53 °F
Wind: 9 mph from North

Location: Riga Airport

Current Time: Sep 30, 2014 at 10:43:44 PM

Latest Report: Sep 30, 2014 at 10:20 PM


Visibility: N/A

Pressure: 30.30 "Hg

Humidity: 71%

Dew point: 41 °F

Location of RigaLocation

Historic Weather in Riga — Graph

°F

Riga temperature yesterday

Maximum temperature yesterday: 64 °F (at 2:50 PM)
Minimum temperature yesterday: 54 °F (at 12:20 AM)
Average temperature yesterday: 57 °F

Past Weeks' High & Low Weather Summary

 TemperatureHumidityPressure
High68 °F (Sep 18, 1:50 PM)100% (Sep 15, 10:50 PM)30.42 "Hg (Sep 15, 10:50 PM)
Low39 °F (Sep 16, 6:20 AM)44% (Sep 24, 1:50 PM)29.47 "Hg (Sep 23, 1:20 AM)
Average53 °F83%30.00 "Hg
* Reported Sep 15 9:20 PM — Sep 30 9:20 PM, Riga, Weather by CustomWeather, © 2014

Note: Actual official high and low records may vary slightly from our data, if they occured in-between our weather recording intervals... More about our weather records

Advertising

Riga weather history for previous 24 hours

 ConditionsComfort  
Time TempWeatherWind HumidityBarometerVisibility
9:20 PM
Sep 30
52 °FPassing clouds.10 mph72%30.27 "HgN/A
8:50 PM54 °FPassing clouds.12 mph72%30.27 "HgN/A
8:20 PM52 °FPassing clouds.8 mph72%30.27 "HgN/A
7:50 PM54 °FScattered clouds.9 mph67%30.27 "HgN/A
7:20 PM54 °FBroken clouds.9 mph67%30.24 "HgN/A
6:50 PM54 °FBroken clouds.8 mph67%30.24 "HgN/A
6:20 PM54 °FScattered clouds.9 mph67%30.24 "HgN/A
5:50 PM55 °FScattered clouds.12 mph63%30.24 "HgN/A
5:20 PM55 °FScattered clouds.12 mph63%30.24 "HgN/A
4:50 PM55 °FPartly sunny.13 mph63%30.24 "HgN/A
4:20 PM55 °FPartly sunny.10 mph67%30.24 "HgN/A
3:50 PM55 °FPartly sunny.13 mph67%30.24 "HgN/A
3:20 PM55 °FPartly sunny.14 mph63%30.21 "HgN/A
2:50 PM55 °FPartly sunny.16 mph67%30.21 "HgN/A
2:20 PM55 °FPartly sunny.12 mph67%30.21 "HgN/A
1:50 PM55 °FBroken clouds.15 mph67%30.21 "HgN/A
1:20 PM55 °FBroken clouds.15 mph72%30.21 "HgN/A
12:50 PM55 °FBroken clouds.14 mph72%30.21 "HgN/A
12:20 PM55 °FBroken clouds.14 mph72%30.18 "HgN/A
11:50 AM55 °FBroken clouds.10 mph72%30.18 "HgN/A
11:20 AM55 °FBroken clouds.12 mph77%30.18 "HgN/A
10:50 AM55 °FBroken clouds.9 mph77%30.18 "HgN/A
10:20 AM55 °FBroken clouds.9 mph72%30.18 "HgN/A
9:50 AM54 °FBroken clouds.7 mph88%30.15 "HgN/A
9:20 AM50 °FScattered clouds.5 mph94%30.15 "HgN/A
8:50 AM48 °FScattered clouds.5 mph100%30.15 "HgN/A
8:20 AM46 °FPassing clouds.3 mph100%30.12 "HgN/A
7:50 AM45 °FPassing clouds.5 mph100%30.12 "HgN/A
7:20 AM46 °FFog.5 mph100%30.12 "HgN/A
6:50 AM46 °FFog.5 mph100%30.12 "HgN/A
6:20 AM46 °FFog.5 mph100%30.12 "HgN/A
5:50 AM46 °FFog.3 mph100%30.09 "HgN/A
5:20 AM46 °FFog.3 mph100%30.09 "HgN/A
4:50 AM46 °FFog.3 mph100%30.09 "HgN/A
4:20 AM46 °FFog.5 mph100%30.09 "HgN/A
3:50 AM48 °FFog.3 mph100%30.09 "HgN/A
3:20 AM48 °FFog.5 mph100%30.09 "HgN/A
2:50 AM48 °FPassing clouds.5 mph100%30.09 "Hg4 mi
2:20 AM48 °FCool.3 mph100%30.09 "Hg4 mi
1:50 AM48 °FFog.3 mph100%30.09 "HgN/A
1:20 AM50 °FClear.3 mph100%30.09 "Hg10 mi
12:50 AM52 °FPassing clouds.3 mph94%30.07 "HgN/A
12:20 AM52 °FPassing clouds.3 mph100%30.07 "HgN/A
11:50 PM
Sep 29
54 °FPassing clouds.3 mph94%30.07 "HgN/A
11:20 PM54 °FPartly cloudy.3 mph94%30.07 "HgN/A
10:50 PM55 °FPartly cloudy.5 mph88%30.07 "HgN/A
10:20 PM55 °FPartly cloudy.3 mph94%30.07 "HgN/A
Weather by CustomWeather, © 2014

See weather overviewHow to use our weather pages